Location: B?ogocice
(50.2413°N, 20.2361°E)
Time: 23:29:29
(UTC+00:00)

Cosmos 1603 - Pass Details

Date: 15 June 2024
Orbit: 829 x 860 km, 71.0° (Epoch: 18 July)

Event Time Altitude Azimuth Distance (km) Brightness Sun altitude
Rises 01:36:09 0° 326° (NW) 3,448 7.1 -6.7°
Reaches altitude 10° 01:38:44 10° 320° (NW) 2,506 6.3 -6.5°
Maximum altitude 01:44:06 42° 252° (WSW) 1,218 4.2 -5.9°
Drops below altitude 10° 01:49:24 10° 183° (S) 2,481 5.7 -5.3°
Sets 01:51:57 0° 176° (S) 3,409 6.4 -5.0°
